Flag for U.S.A. Weather past 2 weeks in Huntington Beach, California, U.S.A.

Now
87 °F

Scattered clouds.


Feels Like: 85 °F
Forecast: 68 / 80 °F
Wind: 6 mph from West

Location: John Wayne Airport-Orange County Airport

Current Time: Jul 28, 2014 at 6:31:24 PM

Latest Report: Jul 28, 2014 at 5:53 PM


Visibility: 10 mi

Pressure: 29.96 "Hg

Humidity: 28%

Dew point: 50 °F

Location of Huntington BeachLocation

Historic Weather in Huntington Beach — Graph

°F

Huntington Beach temperature yesterday

Maximum temperature yesterday: 88 °F (at 4:53 PM)
Minimum temperature yesterday: 71 °F (at 6:53 AM)
Average temperature yesterday: 77 °F

Past Weeks' High & Low Weather Summary

 TemperatureHumidityPressure
High91 °F (Jul 28, 12:53 PM)87% (Jul 26, 6:53 AM)30.06 "Hg (Jul 26, 6:53 AM)
Low68 °F (Jul 18, 5:53 AM)22% (Jul 28, 1:53 PM)29.72 "Hg (Jul 24, 5:53 PM)
Average74 °F65%29.96 "Hg
* Reported Jul 13 4:53 PM — Jul 28 4:53 PM, Huntington Beach, Weather by CustomWeather, © 2014

Note: Actual official high and low records may vary slightly from our data, if they occured in-between our weather recording intervals... More about our weather records

Advertising

Huntington Beach weather history for previous 24 hours

 ConditionsComfort  
Time TempWeatherWind HumidityBarometerVisibility
4:53 PM
Jul 28
86 °FScattered clouds.7 mph27%29.97 "Hg10 mi
3:53 PM86 °FPartly sunny.6 mph32%29.99 "Hg10 mi
2:53 PM87 °FBroken clouds.10 mph31%30.01 "Hg10 mi
1:53 PM89 °FBroken clouds.7 mph22%30.02 "Hg10 mi
12:53 PM91 °FScattered clouds.3 mph23%30.03 "Hg10 mi
11:53 AM87 °FBroken clouds.3 mph24%30.04 "Hg10 mi
10:53 AM84 °FPartly sunny.No wind41%30.06 "Hg10 mi
9:53 AM79 °FPartly sunny.No wind56%30.06 "Hg10 mi
8:53 AM76 °FPartly sunny.3 mph67%30.06 "Hg10 mi
7:53 AM75 °FMore clouds than sun.No wind71%30.04 "Hg10 mi
6:53 AM74 °FOvercast.No wind71%30.03 "Hg10 mi
5:53 AM74 °FMostly cloudy.No wind71%30.02 "Hg10 mi
4:53 AM74 °FClear.3 mph71%30.02 "Hg10 mi
3:53 AM73 °FClear.No wind74%30.02 "Hg10 mi
2:53 AM73 °FClear.7 mph76%30.02 "Hg10 mi
1:53 AM73 °FPassing clouds.8 mph76%30.01 "Hg10 mi
12:53 AM73 °FClear.3 mph74%30.01 "Hg10 mi
11:53 PM
Jul 27
73 °FClear.5 mph74%30.00 "Hg10 mi
10:53 PM73 °FPassing clouds.8 mph71%29.98 "Hg10 mi
9:53 PM74 °FPassing clouds.8 mph71%29.97 "Hg10 mi
8:53 PM76 °FPartly sunny.6 mph64%29.93 "Hg10 mi
7:53 PM78 °FPartly sunny.6 mph58%29.91 "Hg10 mi
6:53 PM81 °FBroken clouds.7 mph47%29.91 "Hg10 mi
Weather by CustomWeather, © 2014

See weather overviewHow to use our weather pages